| time (UTC) | temp F | wind direction | speed MPH | gust MPH | rain 1hr in | rain 24hr in | rain mn in | humidity % | barometer mb |
| 20260508101510 | 43 | 248 | 0.0 | 0.0 | 0.00 | 0.00 | 0.00 | 87 | 1013.7 |
| 20260508100034 | 43 | 248 | 0.0 | 0.0 | 0.00 | 0.00 | 0.00 | 86 | 1013.5 |
| 20260508094525 | 43 | 248 | 0.0 | 0.0 | 0.00 | 0.00 | 0.00 | 85 | 1013.4 |
| 20260508093025 | 44 | 248 | 0.0 | 0.0 | 0.00 | 0.00 | 0.00 | 83 | 1013.3 |
| 20260508091523 | 44 | 248 | 0.0 | 0.0 | 0.00 | 0.00 | 0.00 | 82 | 1013.3 |
| 20260508090025 | 45 | 248 | 0.0 | 0.0 | 0.00 | 0.01 | 0.00 | 79 | 1013.2 |
| 20260508084519 | 46 | 248 | 0.0 | 0.0 | 0.00 | 0.01 | 0.00 | 77 | 1013.1 |
| 20260508083015 | 47 | 248 | 0.0 | 0.0 | 0.00 | 0.01 | 0.00 | 74 | 1012.9 |
| 20260508081526 | 49 | 248 | 0.0 | 1.0 | 0.00 | 0.01 | 0.00 | 71 | 1012.5 |
| 20260508080028 | 49 | 195 | 0.0 | 4.0 | 0.00 | 0.01 | 0.00 | 71 | 1012.3 |
| 20260508074526 | 50 | 172 | 0.0 | 4.0 | 0.00 | 0.01 | 0.00 | 69 | 1012.0 |
| 20260508073028 | 51 | 316 | 1.0 | 4.0 | 0.00 | 0.01 | 0.00 | 68 | 1011.8 |
| 20260508071526 | 51 | 266 | 0.0 | 4.0 | 0.00 | 0.01 | 0.00 | 67 | 1011.4 |
| 20260508070021 | 51 | 282 | 2.0 | 7.0 | 0.00 | 0.01 | 0.00 | 70 | 1011.4 |
| 20260508064546 | 52 | 270 | 0.0 | 3.0 | 0.00 | 0.01 | 0.00 | 72 | 1011.1 |
| 20260508063029 | 51 | 125 | 1.0 | 5.0 | 0.00 | 0.01 | 0.00 | 74 | 1011.0 |
| 20260508061514 | 52 | 288 | 0.0 | 4.0 | 0.00 | 0.01 | 0.00 | 74 | 1010.6 |
| 20260508060015 | 52 | 282 | 0.0 | 3.0 | 0.00 | 0.02 | 0.00 | 73 | 1010.3 |
| 20260508054508 | 53 | 229 | 0.0 | 4.0 | 0.00 | 0.03 | 0.00 | 72 | 1010.2 |
| 20260508053008 | 54 | 278 | 0.0 | 3.0 | 0.00 | 0.15 | 0.00 | 71 | 1010.1 |
| 20260508051510 | 54 | 286 | 0.0 | 3.0 | 0.00 | 0.18 | 0.00 | 71 | 1010.0 |
| 20260508050008 | 54 | 229 | 1.0 | 3.0 | 0.00 | 0.18 | 0.00 | 70 | 1009.9 |
| 20260508044504 | 54 | 219 | 0.0 | 4.0 | 0.00 | 0.18 | 0.00 | 70 | 1009.8 |
| 20260508043004 | 54 | 194 | 0.0 | 2.0 | 0.00 | 0.18 | 0.00 | 71 | 1009.9 |
| 20260508041519 | 53 | 241 | 0.0 | 3.0 | 0.00 | 0.18 | 0.00 | 72 | 1009.9 |
| 20260508040017 | 52 | 201 | 0.0 | 2.0 | 0.00 | 0.18 | 0.00 | 73 | 1009.8 |
| 20260508034521 | 51 | 238 | 0.0 | 1.0 | 0.00 | 0.18 | 0.18 | 74 | 1009.9 |
| 20260508033012 | 52 | 238 | 0.0 | 0.0 | 0.00 | 0.19 | 0.18 | 71 | 1009.9 |
| 20260508031508 | 52 | 239 | 0.0 | 2.0 | 0.00 | 0.19 | 0.18 | 69 | 1009.8 |
| 20260508030004 | 53 | 228 | 0.0 | 2.0 | 0.00 | 0.19 | 0.18 | 67 | 1009.8 |
| 20260508024505 | 51 | 183 | 0.0 | 4.0 | 0.00 | 0.19 | 0.18 | 71 | 1009.8 |
| 20260508023022 | 50 | 227 | 0.0 | 0.0 | 0.00 | 0.19 | 0.18 | 74 | 1009.5 |
| 20260508021517 | 49 | 227 | 0.0 | 0.0 | 0.00 | 0.19 | 0.18 | 73 | 1009.5 |
| 20260508020015 | 49 | 227 | 0.0 | 0.0 | 0.00 | 0.19 | 0.18 | 72 | 1009.6 |
| 20260508014513 | 50 | 227 | 0.0 | 0.0 | 0.00 | 0.19 | 0.18 | 70 | 1009.3 |
| 20260508013013 | 51 | 227 | 0.0 | 0.0 | 0.00 | 0.19 | 0.18 | 68 | 1009.3 |
| 20260508011509 | 52 | 227 | 0.0 | 0.0 | 0.00 | 0.19 | 0.18 | 64 | 1009.0 |
| 20260508010020 | 52 | 227 | 0.0 | 0.0 | 0.00 | 0.19 | 0.18 | 62 | 1009.0 |
| 20260508004536 | 54 | 227 | 0.0 | 0.0 | 0.00 | 0.19 | 0.18 | 59 | 1009.0 |
| 20260508003025 | 55 | 227 | 0.0 | 0.0 | 0.00 | 0.19 | 0.18 | 55 | 1008.7 |
| 20260508001527 | 56 | 227 | 0.0 | 0.0 | 0.00 | 0.19 | 0.18 | 50 | 1008.8 |
| 20260508000019 | 57 | 227 | 0.0 | 0.0 | 0.00 | 0.19 | 0.18 | 47 | 1008.8 |
| 20260507234524 | 59 | 227 | 0.0 | 2.0 | 0.00 | 0.19 | 0.18 | 43 | 1008.7 |
| 20260507233023 | 60 | 226 | 0.0 | 3.0 | 0.00 | 0.19 | 0.18 | 39 | 1008.6 |
| 20260507231512 | 61 | 265 | 0.0 | 5.0 | 0.00 | 0.19 | 0.18 | 38 | 1008.5 |
| 20260507230008 | 62 | 266 | 0.0 | 7.0 | 0.00 | 0.19 | 0.18 | 36 | 1008.2 |
| 20260507224528 | 62 | 261 | 0.0 | 2.0 | 0.00 | 0.19 | 0.18 | 36 | 1008.1 |
| 20260507223024 | 63 | 297 | 0.0 | 4.0 | 0.00 | 0.19 | 0.18 | 37 | 1008.1 |
| 20260507221522 | 64 | 354 | 0.0 | 3.0 | 0.00 | 0.19 | 0.18 | 35 | 1008.2 |
| 20260507220020 | 63 | 283 | 0.0 | 3.0 | 0.00 | 0.19 | 0.18 | 35 | 1008.2 |
| 20260507214525 | 64 | 302 | 1.0 | 8.0 | 0.00 | 0.19 | 0.18 | 35 | 1008.3 |
| 20260507213017 | 64 | 310 | 1.0 | 4.0 | 0.00 | 0.19 | 0.18 | 34 | 1008.3 |
| 20260507211512 | 64 | 240 | 1.0 | 7.0 | 0.00 | 0.19 | 0.18 | 34 | 1008.2 |
| 20260507210012 | 65 | 217 | 2.0 | 7.0 | 0.00 | 0.19 | 0.18 | 34 | 1008.1 |
| 20260507204509 | 64 | 297 | 1.0 | 6.0 | 0.00 | 0.19 | 0.18 | 38 | 1008.0 |
| 20260507203008 | 64 | 111 | 0.0 | 6.0 | 0.00 | 0.19 | 0.18 | 39 | 1007.9 |
| 20260507201512 | 64 | 354 | 1.0 | 4.0 | 0.00 | 0.19 | 0.18 | 37 | 1008.0 |
| 20260507200006 | 64 | 273 | 1.0 | 8.0 | 0.00 | 0.19 | 0.18 | 36 | 1008.2 |
| 20260507194502 | 64 | 359 | 2.0 | 8.0 | 0.00 | 0.19 | 0.18 | 36 | 1008.4 |
| 20260507193021 | 64 | 354 | 1.0 | 6.0 | 0.00 | 0.19 | 0.18 | 40 | 1008.7 |
| 20260507191516 | 64 | 160 | 1.0 | 7.0 | 0.00 | 0.19 | 0.18 | 38 | 1008.7 |
| 20260507190017 | 64 | 160 | 1.0 | 4.0 | 0.00 | 0.19 | 0.18 | 42 | 1009.1 |
| 20260507184511 | 64 | 1 | 1.0 | 4.0 | 0.00 | 0.19 | 0.18 | 40 | 1009.4 |
| 20260507183025 | 63 | 328 | 2.0 | 7.0 | 0.00 | 0.19 | 0.18 | 44 | 1009.4 |
| 20260507181507 | 63 | 163 | 0.0 | 7.0 | 0.00 | 0.19 | 0.18 | 41 | 1009.3 |
| 20260507180005 | 63 | 346 | 2.0 | 4.0 | 0.00 | 0.19 | 0.18 | 46 | 1009.6 |
| 20260507174541 | 62 | 295 | 1.0 | 7.0 | 0.00 | 0.19 | 0.18 | 46 | 1009.9 |
| 20260507173024 | 62 | 11 | 1.0 | 4.0 | 0.00 | 0.19 | 0.18 | 42 | 1010.1 |
| 20260507171522 | 62 | 193 | 1.0 | 5.0 | 0.00 | 0.19 | 0.18 | 44 | 1010.3 |
| 20260507170018 | 62 | 10 | 2.0 | 5.0 | 0.00 | 0.19 | 0.18 | 46 | 1010.4 |
| 20260507164513 | 61 | 300 | 1.0 | 5.0 | 0.00 | 0.19 | 0.18 | 47 | 1010.6 |
| 20260507163018 | 61 | 288 | 1.0 | 5.0 | 0.00 | 0.19 | 0.18 | 45 | 1010.9 |
| 20260507161509 | 60 | 356 | 0.0 | 4.0 | 0.00 | 0.20 | 0.18 | 57 | 1011.0 |
| 20260507160011 | 59 | 39 | 0.0 | 4.0 | 0.00 | 0.22 | 0.18 | 58 | 1011.1 |
| 20260507154524 | 58 | 57 | 1.0 | 4.0 | 0.00 | 0.24 | 0.18 | 58 | 1011.5 |
| 20260507153027 | 57 | 84 | 0.0 | 7.0 | 0.00 | 0.25 | 0.18 | 59 | 1011.7 |
| 20260507151521 | 57 | 25 | 1.0 | 7.0 | 0.00 | 0.26 | 0.18 | 64 | 1012.0 |
| 20260507150019 | 56 | 26 | 0.0 | 4.0 | 0.00 | 0.26 | 0.18 | 66 | 1012.1 |
| 20260507144528 | 56 | 77 | 1.0 | 7.0 | 0.00 | 0.26 | 0.18 | 68 | 1012.2 |
| 20260507143018 | 55 | 199 | 1.0 | 3.0 | 0.00 | 0.26 | 0.18 | 72 | 1012.3 |
| 20260507141514 | 54 | 359 | 1.0 | 4.0 | 0.00 | 0.26 | 0.18 | 77 | 1012.4 |
| 20260507140037 | 53 | 156 | 0.0 | 4.0 | 0.00 | 0.26 | 0.18 | 80 | 1012.5 |
| 20260507134524 | 53 | 314 | 0.0 | 3.0 | 0.00 | 0.26 | 0.18 | 82 | 1012.5 |
| 20260507133024 | 52 | 169 | 0.0 | 3.0 | 0.00 | 0.26 | 0.18 | 85 | 1012.5 |
| 20260507131541 | 52 | 27 | 1.0 | 3.0 | 0.00 | 0.26 | 0.18 | 87 | 1012.4 |
| 20260507130020 | 51 | 268 | 0.0 | 2.0 | 0.00 | 0.26 | 0.18 | 91 | 1012.5 |
| 20260507124522 | 51 | 305 | 1.0 | 4.0 | 0.00 | 0.26 | 0.18 | 93 | 1012.5 |
| 20260507123018 | 51 | 329 | 0.0 | 5.0 | 0.00 | 0.26 | 0.18 | 94 | 1012.5 |
| 20260507121504 | 51 | 314 | 1.0 | 3.0 | 0.00 | 0.26 | 0.18 | 94 | 1012.3 |
| 20260507120005 | 51 | 247 | 0.0 | 0.0 | 0.00 | 0.26 | 0.18 | 95 | 1012.2 |
| 20260507114504 | 50 | 247 | 0.0 | 0.0 | 0.00 | 0.26 | 0.18 | 94 | 1012.2 |
| 20260507113004 | 50 | 232 | 0.0 | 2.0 | 0.00 | 0.26 | 0.18 | 94 | 1012.2 |
| 20260507111506 | 50 | 266 | 0.0 | 2.0 | 0.00 | 0.26 | 0.18 | 94 | 1012.0 |
| 20260507110004 | 50 | 266 | 0.0 | 2.0 | 0.00 | 0.26 | 0.18 | 94 | 1011.8 |
| 20260507104506 | 50 | 227 | 0.0 | 1.0 | 0.00 | 0.26 | 0.18 | 94 | 1011.6 |
| 20260507103004 | 50 | 359 | 0.0 | 2.0 | 0.00 | 0.26 | 0.18 | 94 | 1011.4 |